Tracking 19570 objects as of 22-Feb-2019
HD Live streaming from Space Station
objects crossing your sky now

COSMOS 1287

Track COSMOS 1287 now!
10-day predictions
COSMOS 1287 is classified as:


NORAD ID: 12636
Int'l Code: 1981-074A
Perigee: 1,471.7 km
Apogee: 1,519.3 km
Inclination: 74.0 °
Period: 115.7 minutes
Semi major axis: 7866 km
RCS: 0.667 m2 (medium)
Launch date: August 6, 1981
Source: Commonwealth of Independent States (former USSR) (CIS)
Launch site: PLESETSK MISSILE AND SPACE COMPLEX (PKMTR)
aabbcc
Your satellite tracking list
Your tracking list is empty




NASA's NSSDC Master Catalog

Two Line Element Set (TLE):
1 12636U 81074A   19051.68139420  .00000009  00000-0  17551-3 0  9998
2 12636  74.0329 118.3219 0030235  25.9268 134.6820 12.44313288706097
Source of the keplerian elements: AFSPC